[[{"header":{"parameterUnit":"m.s-1","parameterCategory":1,"la1":30.2991,"la2":30.254,"lo1":-89.0895,"lo2":-89.0444,"dy":0.0017,"dx":0.0017,"nx":28,"ny":28,"refTime":"2025-07-31T09:00:00:Z","depth":0,"parameterNumber":2,"parameterNumberName":"U-component_of_WINDS"},"data":[0,0,0,0,0,0,0,0,0,0,0,0,0,0,0,0,0,0,0,0,0,0,0,0,0,0,0,0,0,0,0,0,0,0,0,0,0,0,0,0,0,0,0,0,0,0,0,0,0,0,0,0,0,0,0,0,0,0,2.3033,2.3035,0,2.3228,2.323,2.3233,2.3297,2.3297,2.3296,2.3295,2.3495,2.3501,2.3507,0,0,0,0,0,0,0,0,0,0,0,0,0,2.2715,2.272,2.3033,2.3035,2.3038,2.3228,2.323,2.3233,2.3298,2.3297,2.3296,2.3295,2.3493,2.35,2.3508,0,0,0,0,0,0,0,0,0,0,0,0,0,2.2876,2.2722,2.3032,2.3093,2.31,2.3227,2.3231,2.3234,2.3298,2.3297,2.3295,2.3294,2.3491,2.3499,2.3509,2.359,0,0,2.3536,2.354,0,0,0,0,0,0,0,0,2.2866,2.2887,2.3081,2.3089,2.3097,2.3237,2.3192,2.3353,2.3298,2.3223,2.3295,2.3294,2.341,2.3426,2.3465,2.3599,2.3608,2.3537,2.3543,2.3547,2.3549,0,0,0,0,0,0,0,2.2855,2.2879,2.311,2.3084,2.3094,2.311,2.3131,2.3223,2.3321,2.3229,2.3234,2.3257,2.3414,2.3456,2.347,2.3611,2.3537,2.3545,2.3551,2.3554,2.3821,2.3822,0,0,0,0,0,0,2.2834,2.2869,2.3104,2.3116,2.2976,2.3116,2.3141,2.3193,2.332,2.3338,2.3257,2.3259,2.3441,2.346,2.3478,2.3581,2.3547,2.3555,2.3561,2.3819,2.3821,2.3823,0,0,0,0,0,0,2.2827,2.2854,2.3096,2.2994,2.3026,2.3123,2.3182,2.3198,2.324,2.3342,2.3359,2.3282,2.3441,2.3465,2.3561,2.3589,2.3559,2.3568,2.3817,2.382,2.3822,2.3788,0,0,0,0,0,0,2.2817,2.2851,2.2883,2.2994,2.3031,2.3176,2.3184,2.3203,2.3256,2.3259,2.337,2.3387,2.3442,2.3547,2.357,2.3601,2.3575,2.3815,2.3818,2.3821,2.3787,2.3788,2.379,0,0,0,0,0,2.2806,2.2866,2.2885,2.2912,2.3073,2.3178,2.3199,2.3261,2.3258,2.329,2.3356,2.3383,2.3582,2.3557,2.3583,2.3617,2.3814,2.3818,2.3821,2.3786,2.3788,2.379,0,0,0,0,0,0,2.2755,2.2882,2.2904,2.3002,2.3078,2.3188,2.3232,2.3261,2.3341,2.3341,2.3415,2.3439,2.353,2.3583,2.3553,2.3702,2.3699,2.3708,2.3663,2.3666,2.3668,2.3653,2.3582,0,0,0,0,0,2.2756,2.283,2.2936,2.3012,2.305,2.3134,2.3182,2.3223,2.3306,2.3338,2.3411,2.349,2.357,2.3621,2.3701,2.3795,2.382,2.3831,2.3833,2.3833,2.384,2.3893,2.3899,2.3835,2.3835,2.3835,0,0,2.2757,2.2835,2.2877,2.3004,2.3068,2.3143,2.3161,2.324,2.3296,2.335,2.3446,2.3501,2.3595,2.369,2.3736,2.3737,2.3864,2.3838,2.3838,2.3844,2.3897,2.3903,2.3909,2.3837,2.3837,2.3836,0,0,2.2797,2.2864,2.2934,2.2999,2.3096,2.3152,2.3168,2.3274,2.3313,2.341,2.3452,2.352,2.3657,2.3722,2.3772,2.3837,2.3865,2.3861,2.3869,2.392,2.3925,2.393,2.3952,2.3959,2.3867,2.3867,2.3867,0,2.2786,2.2901,2.2967,2.3043,2.3097,2.315,2.3222,2.3281,2.3399,2.3435,2.3435,2.3608,2.3674,2.3785,2.3801,2.384,2.3861,2.3848,2.3919,2.3924,2.393,2.3952,2.396,2.3866,2.3866,2.3866,2.3866,0,2.2882,2.2961,2.3006,2.3119,2.3179,2.3252,2.3329,2.3381,2.3417,2.3472,2.357,2.3652,2.3748,2.3778,2.3814,2.3894,2.3892,2.3904,2.3903,2.3934,2.3956,2.3965,2.3864,2.3865,2.3865,2.3865,0,0,2.2896,2.3044,2.3059,2.3111,2.3222,2.3284,2.336,2.3455,2.3498,2.3577,2.3642,2.3757,2.3769,2.3827,2.3871,2.3915,2.396,2.3923,2.3926,2.3926,2.4052,2.4041,2.405,2.398,2.3982,2.3983,2.4044,0,2.295,2.3088,2.3149,2.3259,2.3332,2.3384,2.345,2.3525,2.3579,2.3649,2.3708,2.3788,2.3799,2.3833,2.388,2.3945,2.3986,2.3941,2.4041,2.4043,2.4015,2.4062,2.4051,2.4104,2.4053,2.4055,2.4056,0,2.3031,2.3111,2.3228,2.333,2.3363,2.3421,2.3513,2.3579,2.3665,2.3702,2.3765,2.3807,2.3889,2.3882,2.3995,2.3963,2.4007,2.4045,2.4049,2.406,2.4051,2.4073,2.4123,2.413,2.407,2.4069,2.4068,0,2.3028,2.3165,2.3252,2.3295,2.3417,2.3456,2.3509,2.3594,2.3647,2.3726,2.3761,2.385,2.3898,2.3965,2.403,2.4019,2.4136,2.4135,2.4168,2.4166,2.4189,2.4187,2.4246,2.4219,2.4219,2.4219,2.4218,0,2.3081,2.315,2.3253,2.3306,2.3385,2.3455,2.3532,2.3588,2.3663,2.3728,2.3779,2.3839,2.3921,2.3991,2.4043,2.4128,2.4149,2.418,2.4193,2.4176,2.4171,2.4205,2.4203,2.4221,2.422,2.422,2.422,0,2.3091,2.3162,2.3261,2.3368,2.3396,2.345,2.3541,2.3595,2.3652,2.3734,2.3757,2.3845,2.3931,2.4002,2.4115,2.4149,2.4237,2.4253,2.4208,2.4215,2.4243,2.4239,2.4325,2.434,2.4303,2.4303,2.4303,0,2.3119,2.3174,2.3287,2.3334,2.3386,2.3462,2.3516,2.3587,2.3641,2.3743,2.3785,2.3874,2.3949,2.4084,2.4158,2.4244,2.4261,2.4285,2.4274,2.4255,2.4261,2.4256,2.4262,2.4286,2.4286,2.4286,2.4286,0,2.3163,2.3195,2.3272,2.336,2.3423,2.3496,2.3571,2.3607,2.3691,2.3749,2.3838,2.3896,2.4011,2.4098,2.4192,2.4246,2.428,2.4289,2.4301,2.4283,2.4255,2.427,2.421,2.4287,2.4286,2.4286,2.4286,2.4286,2.3183,2.3233,2.3321,2.3404,2.3467,2.3535,2.3591,2.3655,2.3729,2.3828,2.3866,2.3955,2.404,2.417,2.4224,2.4296,2.43,2.4317,2.4322,2.4325,2.4322,2.4244,2.4313,2.4313,2.4314,2.4314,2.4314,0,2.3228,2.3287,2.3363,2.3465,2.353,2.3557,2.364,2.3693,2.3771,2.3848,2.392,2.4021,2.4107,2.4188,2.4277,2.4318,2.4336,2.4339,2.4337,2.4348,2.4313,2.4294,2.4323,2.4323,2.4323,2.4323,2.4323,2.4323,2.3259,2.3346,2.3389,2.3508,2.3566,2.3655,2.37,2.3763,2.3824,2.3935,2.4006,2.4058,2.4136,2.4232,2.4311,2.4333,2.4363,2.4362,2.4387,2.4353,2.4351,2.4349,2.4331,2.4368,2.4368,2.4417,2.4417,2.4417]},{"header":{"parameterUnit":"m.s-1","parameterCategory":1,"la1":30.2991,"la2":30.254,"lo1":-89.0895,"lo2":-89.0444,"dy":0.0017,"dx":0.0017,"nx":28,"ny":28,"refTime":"2025-07-31T09:00:00:Z","depth":0,"parameterNumber":3,"parameterNumberName":"V-component_of_WINDS"},"data":[0,0,0,0,0,0,0,0,0,0,0,0,0,0,0,0,0,0,0,0,0,0,0,0,0,0,0,0,0,0,0,0,0,0,0,0,0,0,0,0,0,0,0,0,0,0,0,0,0,0,0,0,0,0,0,0,0,0,5.1195,5.1195,0,5.1191,5.1191,5.1191,5.1126,5.1125,5.1123,5.1122,5.1117,5.1118,5.112,0,0,0,0,0,0,0,0,0,0,0,0,0,5.1146,5.1147,5.1195,5.1195,5.1195,5.1191,5.1191,5.1191,5.1127,5.1125,5.1123,5.1121,5.1117,5.1118,5.112,0,0,0,0,0,0,0,0,0,0,0,0,0,5.1157,5.1148,5.1195,5.1162,5.116,5.1191,5.1191,5.1191,5.1127,5.1125,5.1122,5.112,5.1116,5.1118,5.112,5.1183,0,0,5.1127,5.1128,0,0,0,0,0,0,0,0,5.1157,5.1159,5.1167,5.1165,5.1162,5.1157,5.1172,5.1189,5.1128,5.1139,5.1122,5.1119,5.1132,5.1133,5.1138,5.1183,5.1183,5.1127,5.1128,5.1129,5.113,0,0,0,0,0,0,0,5.1156,5.1159,5.1194,5.1168,5.1164,5.1148,5.1147,5.1175,5.115,5.1138,5.1134,5.1134,5.113,5.1136,5.1137,5.1183,5.1127,5.1129,5.113,5.1131,5.1279,5.1282,0,0,0,0,0,0,5.116,5.1159,5.1194,5.1194,5.1153,5.1151,5.1149,5.1161,5.1149,5.1145,5.1136,5.1131,5.1133,5.1135,5.1137,5.1209,5.1129,5.1131,5.1132,5.1276,5.128,5.1283,0,0,0,0,0,0,5.1159,5.1164,5.1194,5.1175,5.1178,5.1154,5.1168,5.1162,5.1167,5.1148,5.1143,5.1146,5.1131,5.1134,5.1172,5.1208,5.1132,5.1134,5.1273,5.1277,5.1281,5.1355,0,0,0,0,0,0,5.1158,5.1164,5.1187,5.1176,5.1179,5.123,5.117,5.1164,5.1171,5.1165,5.1156,5.1152,5.113,5.1169,5.1174,5.121,5.1136,5.127,5.1275,5.128,5.1349,5.1361,5.1371,0,0,0,0,0,5.1157,5.1208,5.1189,5.1194,5.1208,5.1232,5.1233,5.1206,5.1175,5.1198,5.1186,5.1153,5.1204,5.1174,5.1179,5.1215,5.1268,5.1274,5.1279,5.1344,5.1359,5.1371,0,0,0,0,0,0,5.1224,5.1206,5.1184,5.1234,5.1235,5.1221,5.1249,5.1223,5.1232,5.1226,5.1192,5.119,5.1234,5.1228,5.1195,5.1276,5.123,5.1237,5.1277,5.1291,5.1302,5.1301,5.1137,0,0,0,0,0,5.1245,5.1266,5.1249,5.1294,5.1296,5.1273,5.1282,5.1262,5.1261,5.1261,5.1251,5.1252,5.1268,5.1279,5.1293,5.1348,5.1345,5.1376,5.1387,5.1396,5.1403,5.1431,5.1445,5.1302,5.1302,5.1302,0,0,5.1287,5.128,5.1295,5.1308,5.1306,5.1328,5.1274,5.13,5.1316,5.1265,5.13,5.1294,5.1292,5.1339,5.136,5.1336,5.1442,5.1404,5.1411,5.1413,5.1439,5.1452,5.1464,5.1306,5.1306,5.1305,0,0,5.1376,5.1373,5.1411,5.141,5.1409,5.1393,5.1403,5.1393,5.1386,5.1422,5.1384,5.1403,5.1432,5.1432,5.1436,5.1527,5.1497,5.1533,5.1589,5.1618,5.1629,5.1639,5.167,5.1682,5.1539,5.1539,5.1539,0,5.1429,5.1462,5.1433,5.1462,5.1468,5.1424,5.1462,5.1463,5.1466,5.1471,5.1445,5.148,5.1476,5.1523,5.1545,5.155,5.1559,5.1533,5.163,5.1639,5.1648,5.1678,5.169,5.1544,5.1543,5.1543,5.1542,0,5.1527,5.155,5.1581,5.1585,5.1595,5.1628,5.1604,5.1618,5.1597,5.1584,5.1621,5.1615,5.1627,5.1637,5.1616,5.1681,5.1666,5.1636,5.1589,5.1666,5.1694,5.1705,5.155,5.1548,5.1547,5.1546,0,0,5.1656,5.1646,5.1657,5.1659,5.1655,5.1672,5.1703,5.1715,5.1727,5.1732,5.1756,5.1782,5.1754,5.1759,5.1738,5.1764,5.1836,5.173,5.1729,5.1749,5.1906,5.1928,5.1942,5.1816,5.1818,5.182,5.1906,0,5.1742,5.1795,5.177,5.1826,5.1847,5.1806,5.1833,5.1833,5.1823,5.1839,5.1827,5.1846,5.1808,5.181,5.1834,5.1822,5.1866,5.1816,5.1839,5.184,5.1839,5.1956,5.198,5.2061,5.1916,5.1918,5.1919,0,5.1848,5.1857,5.1915,5.1907,5.1915,5.194,5.1949,5.1965,5.1965,5.1956,5.1962,5.1936,5.1966,5.1921,5.1961,5.1927,5.1936,5.1931,5.1934,5.1934,5.1883,5.1959,5.2086,5.2098,5.1936,5.1935,5.1934,0,5.1936,5.1963,5.2001,5.2003,5.1996,5.2014,5.2012,5.2009,5.2018,5.2026,5.2032,5.2044,5.205,5.2059,5.2037,5.2006,5.2081,5.2034,5.2074,5.2074,5.209,5.2089,5.222,5.2097,5.2097,5.2097,5.2097,0,5.2033,5.207,5.204,5.2063,5.2103,5.2075,5.2116,5.2109,5.2107,5.2128,5.2094,5.2114,5.2084,5.2102,5.2085,5.2121,5.2124,5.2117,5.2112,5.212,5.2121,5.2124,5.2117,5.21,5.2099,5.2099,5.2098,0,5.2137,5.2119,5.2158,5.2148,5.2146,5.2176,5.2167,5.2188,5.2176,5.2203,5.2208,5.2189,5.2208,5.2187,5.2204,5.2193,5.2241,5.2228,5.2242,5.2237,5.2278,5.2274,5.2414,5.2431,5.2299,5.23,5.2302,0,5.22,5.2227,5.2221,5.2233,5.2233,5.2252,5.2261,5.2235,5.2246,5.2249,5.227,5.2286,5.2297,5.233,5.2317,5.233,5.2317,5.2365,5.2318,5.2325,5.2316,5.2315,5.2317,5.2374,5.2376,5.2377,5.2378,0,5.2313,5.2303,5.2317,5.233,5.2342,5.235,5.2355,5.2367,5.234,5.2354,5.2373,5.2383,5.2401,5.2417,5.2427,5.2424,5.2397,5.2393,5.2403,5.241,5.2416,5.2413,5.2266,5.2389,5.2388,5.2387,5.2387,5.2386,5.2398,5.242,5.2419,5.2437,5.2438,5.2445,5.2464,5.2454,5.247,5.2483,5.2467,5.2491,5.249,5.2501,5.2502,5.252,5.2499,5.2513,5.2517,5.252,5.2526,5.2415,5.2521,5.2521,5.2521,5.252,5.252,0,5.2508,5.2506,5.2522,5.2531,5.2545,5.2519,5.2524,5.2538,5.2559,5.2561,5.2574,5.2596,5.2612,5.2602,5.2615,5.2632,5.262,5.2636,5.2634,5.2634,5.2544,5.2534,5.2646,5.2646,5.2646,5.2646,5.2646,5.2646,5.2567,5.2603,5.2594,5.2631,5.2628,5.2651,5.2656,5.2662,5.2663,5.269,5.2704,5.2697,5.2694,5.2707,5.2721,5.2717,5.2723,5.2745,5.2736,5.2653,5.264,5.2628,5.2618,5.2746,5.2747,5.2824,5.2825,5.2826]}]]